Probability
74 65 71 71 55 52 55 58 61 52 52 45 42 39 39 35 39 42 32 58 55 58 55 52 45 42 42 45 52 48 42 42 39 45 42 39 35 32 32 32 29 32 32
74 77 68 77 71 68 65 65 61 55 61 55 58 48 45 42 35 48 32 45 61 55 58 65 55 52 52 48 45 45 48 39 42 39 32 35 35 42 32 29 26 35 32
77 77 68 77 74 74 71 68 68 58 52 55 55 52 45 55 35 45 52 52 52 55 52 55 61 61 55 55 52 45 48 52 45 48 48 39 39 42 35 29 23 29 35
71 71 74 68 68 65 65 74 71 61 61 55 61 61 61 58 52 55 45 58 52 45 52 58 61 61 58 48 52 55 52 45 48 48 45 42 45 39 32 32 29 26 23
68 68 71 68 65 68 68 55 68 74 61 68 58 58 61 65 65 58 55 61 65 55 52 55 65 58 55 58 52 52 55 55 48 42 45 42 42 39 32 35 26 19 19
65 68 68 61 65 58 65 68 71 74 74 68 45 61 61 58 61 68 61 58 65 61 61 58 61 48 58 58 58 61 55 58 55 48 39 45 45 35 35 26 23 19 16
65 68 68 71 68 58 58 58 61 68 68 65 61 55 55 52 55 58 58 61 55 61 61 65 55 55 39 42 52 52 58 45 48 39 45 48 45 39 39 32 26 19 19
71 55 68 68 68 68 71 61 58 68 52 52 61 45 48 48 52 39 48 52 55 58 52 55 55 61 58 48 23 45 45 45 48 45 42 42 42 35 35 29 29 26 23
58 65 68 68 71 65 65 61 58 52 52 55 61 52 48 48 42 52 48 48 55 55 52 58 61 55 58 55 48 29 45 45 52 45 45 39 35 35 35 29 29 26 26
58 68 65 68 68 65 61 61 52 58 61 58 65 61 65 52 48 48 48 52 48 42 42 42 45 55 48 48 45 42 32 29 39 42 42 42 39 32 32 26 26 29 26
65 61 65 74 71 65 65 65 65 68 68 68 65 65 61 58 55 58 48 45 45 45 52 42 45 52 45 52 52 39 26 16 23 32 35 39 32 35 32 32 29 29 32
68 68 68 71 68 68 68 68 71 71 71 71 68 68 68 61 55 55 55 52 39 42 39 48 39 42 45 52 48 32 23 13 10 6 13 26 29 35 35 35 29 29 32
71 71 68 65 68 65 68 68 71 71 68 71 68 71 71 71 65 61 48 45 45 39 45 45 45 48 45 48 39 26 19 6 6 0 6 6 10 13 16 16 19 19 26
71 71 68 65 65 65 65 61 68 68 65 68 65 68 71 65 65 65 58 48 39 42 45 45 42 39 35 45 29 16 26 6 3 3 3 0 3 3 3 6 10 13 13
71 68 65 61 68 68 68 68 68 68 68 68 68 71 71 65 61 55 52 52 42 35 35 35 42 39 35 39 23 29 45 13 6 0 0 0 0 3 3 3 3 3 3
71 58 61 61 65 68 68 68 65 65 65 68 71 71 71 58 58 58 55 55 52 35 32 35 35 39 39 26 16 35 39 26 6 3 0 0 0 0 0 0 0 0 0
68 58 58 61 61 61 68 65 58 58 61 58 55 58 65 65 61 61 55 52 48 48 39 35 32 32 35 35 29 35 35 32 23 6 0 0 0 0 0 0 0 0 0
65 58 68 68 58 55 58 55 55 52 58 58 61 58 61 52 61 61 61 55 55 58 48 42 39 39 35 39 35 35 29 26 26 13 3 0 0 0 0 0 0 0 0
58 58 58 58 55 58 55 58 58 55 55 55 52 55 58 58 58 58 58 61 55 48 48 39 39 42 42 35 29 29 29 29 26 19 3 3 0 0 0 0 0 0 0
58 55 52 52 55 58 52 52 52 52 52 48 48 52 58 58 58 58 55 58 58 58 48 42 32 39 45 32 32 29 26 26 26 19 6 3 3 3 0 0 0 0 0
48 52 45 48 52 48 35 42 52 42 52 48 48 52 45 35 35 35 35 48 58 55 48 45 39 29 29 32 29 29 29 29 26 26 19 13 10 3 3 0 0 0 0
52 58 52 52 52 35 26 19 29 42 48 52 52 52 42 26 23 19 19 13 13 29 39 42 35 26 23 29 29 29 29 29 26 23 23 16 16 16 10 3 0 0 0
58 55 55 52 48 35 19 13 6 26 42 48 52 55 35 26 26 26 16 10 3 0 3 19 29 29 29 29 32 29 29 29 23 26 23 19 19 19 19 13 0 0 0
61 58 58 52 52 32 19 13 6 13 32 45 48 48 48 42 23 29 29 26 26 23 10 3 19 23 19 29 39 29 26 26 23 23 19 19 23 23 19 13 3 0 0
61 58 55 55 48 39 19 10 3 32 42 45 42 45 45 42 29 10 26 35 35 35 19 3 0 6 3 3 3 13 16 23 16 16 19 19 16 19 23 16 13 0 0
61 55 52 45 45 45 16 16 3 29 35 45 42 35 23 23 19 3 23 32 26 23 19 19 3 0 0 3 0 3 19 19 19 13 19 16 19 19 19 23 16 13 0
Height
5904 5904 5904 5904 5904 5903 5903 5903 5902 5902 5901 5901 5901 5900 5900 5899 5898 5897 5896 5895 5895 5894 5893 5893 5892 5892 5891 5890 5890 5889 5889 5888 5888 5887 5887 5886 5886 5886 5887 5887 5887 5887 5888
5904 5904 5904 5904 5904 5903 5903 5902 5902 5901 5901 5901 5900 5900 5899 5898 5898 5897 5896 5894 5894 5893 5892 5892 5891 5890 5889 5889 5888 5887 5886 5886 5885 5885 5884 5884 5884 5884 5884 5884 5884 5885 5885
5904 5904 5904 5904 5904 5903 5903 5902 5901 5901 5901 5900 5899 5899 5898 5897 5897 5896 5895 5894 5893 5892 5891 5890 5889 5889 5888 5887 5886 5885 5884 5884 5883 5883 5882 5881 5881 5881 5882 5882 5882 5882 5883
5904 5904 5904 5904 5903 5903 5902 5902 5901 5900 5900 5899 5899 5898 5897 5896 5895 5894 5893 5892 5891 5890 5890 5889 5888 5887 5886 5885 5884 5883 5882 5881 5880 5880 5880 5879 5878 5878 5879 5879 5879 5879 5879
5904 5904 5904 5903 5903 5902 5902 5901 5900 5900 5899 5898 5898 5897 5896 5895 5894 5892 5890 5890 5889 5888 5887 5887 5886 5885 5884 5883 5882 5881 5880 5879 5878 5877 5877 5876 5876 5875 5875 5875 5876 5876 5876
5904 5904 5904 5903 5902 5902 5901 5901 5900 5899 5898 5897 5896 5895 5894 5893 5892 5890 5889 5888 5887 5885 5884 5884 5883 5882 5881 5880 5879 5878 5877 5876 5875 5875 5874 5873 5873 5872 5872 5872 5872 5872 5873
5904 5904 5903 5903 5902 5901 5901 5900 5899 5898 5897 5896 5895 5894 5892 5891 5890 5888 5887 5885 5884 5883 5881 5881 5880 5880 5879 5877 5876 5875 5874 5873 5872 5872 5871 5870 5870 5869 5869 5868 5869 5869 5869
5903 5903 5903 5902 5901 5900 5899 5898 5898 5896 5895 5894 5893 5891 5890 5890 5887 5886 5884 5883 5882 5880 5879 5878 5877 5876 5875 5874 5873 5872 5871 5870 5869 5869 5868 5867 5866 5866 5865 5865 5865 5865 5865
5902 5902 5902 5901 5900 5899 5898 5897 5896 5895 5893 5891 5890 5889 5887 5886 5885 5884 5882 5880 5879 5877 5876 5875 5874 5873 5872 5871 5870 5869 5868 5867 5866 5865 5865 5864 5863 5862 5862 5862 5861 5861 5861
5902 5901 5901 5900 5899 5898 5897 5895 5894 5892 5891 5889 5888 5886 5885 5883 5882 5881 5879 5877 5876 5875 5873 5872 5871 5869 5868 5867 5866 5866 5865 5864 5863 5862 5861 5860 5860 5859 5858 5858 5857 5857 5857
5901 5900 5899 5898 5897 5896 5895 5893 5892 5890 5889 5887 5886 5884 5882 5881 5879 5878 5877 5875 5873 5872 5870 5869 5867 5866 5865 5864 5863 5862 5861 5860 5859 5858 5857 5856 5856 5855 5855 5854 5853 5853 5853
5900 5899 5898 5897 5896 5894 5893 5891 5890 5888 5886 5885 5883 5881 5880 5879 5877 5875 5874 5872 5870 5869 5867 5865 5864 5863 5862 5860 5859 5858 5857 5857 5856 5855 5853 5853 5852 5851 5850 5850 5849 5849 5849
5899 5898 5896 5895 5893 5892 5890 5889 5887 5885 5884 5882 5880 5879 5877 5875 5874 5872 5870 5869 5867 5866 5864 5862 5860 5859 5858 5856 5855 5854 5853 5852 5851 5850 5849 5848 5847 5846 5846 5845 5845 5844 5844
5897 5896 5894 5893 5891 5889 5887 5886 5884 5882 5881 5879 5877 5875 5874 5872 5870 5868 5867 5865 5863 5862 5860 5858 5856 5855 5854 5852 5851 5850 5848 5847 5846 5845 5844 5843 5842 5841 5841 5840 5840 5839 5839
5894 5893 5891 5890 5888 5886 5884 5882 5881 5879 5877 5875 5874 5872 5870 5868 5866 5864 5863 5861 5859 5857 5856 5854 5852 5850 5849 5848 5846 5845 5844 5842 5841 5840 5839 5838 5837 5836 5836 5835 5835 5834 5834
5891 5889 5888 5886 5884 5882 5880 5879 5877 5875 5873 5871 5869 5868 5866 5864 5862 5860 5858 5856 5854 5852 5851 5850 5847 5845 5844 5843 5841 5840 5839 5837 5836 5835 5834 5833 5832 5831 5830 5830 5829 5829 5829
5888 5886 5884 5882 5880 5878 5876 5874 5872 5870 5868 5867 5865 5863 5861 5859 5857 5855 5853 5851 5849 5847 5845 5844 5842 5841 5839 5837 5836 5834 5833 5831 5830 5829 5828 5827 5826 5825 5824 5824 5824 5823 5823
5884 5882 5880 5878 5876 5874 5872 5870 5868 5866 5864 5862 5860 5857 5855 5853 5851 5849 5847 5845 5843 5841 5840 5839 5837 5835 5833 5832 5830 5828 5826 5825 5824 5823 5821 5820 5819 5819 5818 5817 5817 5817 5817
5879 5877 5875 5873 5871 5869 5867 5865 5863 5860 5858 5856 5854 5851 5849 5847 5845 5842 5841 5839 5837 5835 5834 5832 5831 5829 5827 5825 5823 5822 5820 5818 5817 5815 5814 5813 5812 5812 5811 5810 5810 5810 5810
5874 5872 5870 5868 5866 5864 5862 5859 5857 5855 5852 5850 5848 5846 5843 5841 5838 5836 5834 5832 5830 5828 5827 5825 5823 5821 5820 5818 5816 5814 5813 5811 5809 5808 5807 5806 5805 5804 5803 5803 5802 5802 5802
5869 5867 5865 5863 5860 5858 5856 5854 5851 5849 5846 5844 5842 5839 5837 5834 5832 5830 5827 5825 5823 5821 5819 5817 5816 5814 5812 5810 5808 5806 5805 5803 5802 5800 5799 5798 5797 5796 5795 5794 5794 5794 5794
5862 5861 5858 5856 5854 5851 5849 5847 5845 5842 5840 5838 5835 5832 5830 5828 5825 5823 5820 5818 5815 5813 5811 5809 5808 5806 5804 5802 5800 5798 5796 5795 5794 5792 5790 5789 5788 5787 5786 5786 5785 5785 5785
5856 5854 5852 5849 5847 5845 5843 5840 5838 5836 5833 5831 5828 5825 5822 5820 5817 5815 5813 5810 5808 5805 5803 5801 5799 5798 5796 5794 5792 5790 5788 5786 5785 5783 5781 5780 5779 5777 5777 5776 5776 5776 5776
5849 5847 5845 5843 5840 5838 5836 5833 5831 5828 5826 5823 5820 5817 5814 5812 5809 5807 5805 5802 5800 5798 5795 5793 5791 5789 5787 5785 5784 5782 5780 5778 5776 5774 5772 5771 5770 5769 5768 5767 5767 5767 5767
5842 5840 5838 5835 5833 5831 5828 5826 5823 5820 5818 5815 5812 5809 5806 5804 5802 5799 5796 5794 5792 5790 5787 5785 5783 5781 5779 5777 5775 5773 5771 5769 5767 5766 5764 5762 5761 5760 5759 5758 5758 5758 5758
5834 5832 5830 5827 5825 5823 5820 5817 5815 5812 5810 5807 5804 5801 5799 5796 5794 5790 5788 5786 5783 5781 5779 5777 5774 5772 5770 5768 5765 5763 5761 5759 5757 5756 5755 5753 5752 5750 5750 5750 5749 5749 5749
Wind_Speed
3 3 4 4 4 5 5 6 6 6 5 5 6 7 7 7 7 7 7 7 6 7 7 8 8 8 8 7 7 8 8 9 9 9 9 10 9 9 9 9 9 8 8
3 4 4 4 4 5 6 6 6 5 5 6 7 8 8 8 8 8 8 7 7 7 7 8 8 8 8 8 8 9 9 10 10 10 10 9 9 10 9 9 10 9 9
4 4 4 4 5 6 6 6 5 5 6 7 7 8 8 8 8 8 8 8 8 8 9 8 8 8 9 9 9 10 10 10 11 11 11 10 10 10 10 9 9 9 9
4 4 5 5 6 6 6 6 6 6 7 7 7 8 9 9 8 9 9 9 9 9 9 10 10 10 10 10 10 11 11 11 11 11 11 11 10 11 11 10 10 10 11
5 4 5 6 7 7 7 6 5 6 7 7 8 9 9 9 9 10 10 10 10 10 10 11 11 11 11 11 12 12 12 11 11 11 12 11 11 11 11 11 11 12 12
5 5 5 7 7 6 6 7 7 8 9 9 9 10 10 10 10 11 11 11 12 12 11 12 12 12 12 13 13 13 13 12 12 12 12 12 11 11 11 12 12 12 12
5 5 6 7 7 7 7 8 8 9 10 10 10 10 11 11 11 12 12 12 12 12 12 12 13 14 13 13 14 13 14 14 14 13 13 12 12 11 11 11 12 12 13
6 6 7 7 8 8 9 9 9 10 11 11 11 12 12 12 12 13 13 13 13 13 13 14 14 15 15 15 14 13 14 14 14 13 13 13 12 12 11 12 13 13 13
7 7 7 8 9 9 9 10 11 12 12 12 12 13 13 13 14 14 14 15 14 14 14 14 15 16 15 15 14 14 14 14 14 14 14 14 13 13 13 12 13 14 14
6 7 7 8 9 10 10 11 11 11 11 12 12 13 14 14 14 14 14 14 14 15 15 15 15 15 15 15 14 14 14 14 14 14 15 14 14 14 14 14 14 14 14
7 8 8 9 10 11 11 12 11 12 12 12 13 14 14 15 15 15 15 15 15 15 16 16 15 15 16 16 15 15 16 15 15 15 15 15 15 15 15 15 14 14 14
9 9 10 10 11 11 12 12 13 13 13 13 14 15 15 16 17 16 16 16 15 15 16 16 16 16 15 16 16 16 16 16 16 17 16 16 16 16 16 15 15 14 15
11 11 12 12 12 13 13 14 14 14 14 15 16 17 17 17 17 17 17 17 16 16 16 17 16 16 16 16 16 16 16 17 17 17 18 17 17 17 16 16 15 15 15
13 13 13 14 14 15 15 16 16 16 17 17 18 18 18 18 18 18 18 18 18 17 17 18 18 17 17 17 17 17 17 18 18 19 19 18 18 18 16 16 16 16 16
15 15 15 16 16 16 16 17 17 18 19 19 19 19 19 19 19 19 20 20 19 18 19 19 19 18 18 18 18 18 18 19 20 19 19 19 19 18 17 17 16 17 17
16 16 17 17 18 18 18 18 19 19 20 20 20 21 21 21 20 20 20 21 21 20 20 20 19 20 20 20 20 20 20 20 21 21 21 20 19 19 19 18 18 18 18
17 18 18 19 20 19 20 20 20 21 21 21 21 21 22 22 22 22 22 22 23 22 21 21 21 21 21 22 22 22 22 21 22 22 22 21 21 21 20 20 20 19 19
19 19 20 20 21 21 22 22 22 22 22 23 23 23 23 23 23 24 24 24 24 24 23 23 23 24 23 23 24 24 24 23 23 23 24 23 23 22 22 22 22 22 22
21 21 21 22 23 23 23 23 23 24 24 25 25 24 24 25 25 25 26 26 26 25 25 25 25 25 25 26 26 26 26 26 25 25 25 25 25 25 24 25 25 24 24
23 22 23 23 24 25 25 25 25 26 26 26 25 25 26 26 26 27 27 26 27 27 27 27 27 27 27 27 28 27 27 28 28 27 27 27 26 26 26 26 27 27 27
24 24 24 25 26 26 26 26 26 27 26 26 27 27 28 28 28 28 28 28 28 28 29 28 28 28 28 28 28 28 28 29 28 29 28 28 28 28 28 28 28 28 28
26 26 27 27 27 27 27 27 27 28 28 28 28 29 29 29 30 30 30 30 29 29 29 29 29 29 29 29 29 28 29 29 29 29 29 28 29 28 29 29 29 29 29
27 28 28 28 27 27 28 28 29 30 30 30 31 31 31 31 30 30 30 30 30 29 30 30 29 29 29 29 29 29 30 30 30 30 29 29 30 30 30 29 29 29 29
29 29 29 29 29 29 29 29 30 31 31 32 32 32 32 31 31 31 30 30 30 30 31 30 30 30 30 30 30 31 31 30 30 30 30 30 30 30 29 28 28 28 29
31 31 31 31 32 32 31 31 32 32 32 32 32 32 32 32 31 31 31 31 30 31 31 31 31 31 31 31 31 32 32 32 31 30 31 30 30 30 29 29 28 28 28
32 32 32 32 33 33 33 33 33 34 33 33 33 33 33 33 32 32 32 31 31 31 32 32 32 32 32 33 33 33 33 33 32 31 30 31 30 29 28 28 28 28 28
Wind_Direction
358 1 2 356 351 350 345 335 330 327 334 338 340 346 341 343 341 335 331 330 330 325 323 322 319 319 321 319 313 312 311 308 303 302 295 286 281 278 278 271 272 272 269
350 355 355 354 345 342 340 333 329 328 332 333 333 338 337 337 334 329 326 325 324 321 319 315 313 314 317 315 311 311 307 304 302 300 297 287 284 283 280 276 271 267 268
341 342 343 347 344 342 339 337 330 330 329 329 330 332 333 333 331 327 324 319 318 316 315 312 309 309 309 311 313 311 307 301 299 299 297 288 279 279 284 277 275 267 267
340 345 343 341 345 341 335 337 331 327 326 328 328 326 327 330 328 326 323 318 313 310 308 310 311 306 303 308 309 310 307 301 303 302 301 292 284 279 280 277 272 267 263
341 345 344 343 346 345 341 336 326 323 323 325 324 323 325 326 322 320 319 317 312 307 306 306 308 305 304 304 303 304 306 302 301 301 304 301 292 286 281 281 274 269 261
335 338 333 335 339 341 341 339 330 324 320 321 321 322 322 321 321 319 321 319 314 310 305 306 308 308 306 304 302 301 302 302 300 301 303 301 296 291 288 286 280 270 264
330 329 330 333 335 336 332 329 325 321 318 318 318 320 323 325 323 320 320 317 316 312 309 307 305 305 303 302 302 302 300 299 296 297 299 298 296 292 290 290 284 275 267
331 330 331 334 332 331 328 326 322 320 317 317 320 320 320 321 322 320 318 315 313 311 308 306 306 304 302 300 301 302 301 299 297 298 298 298 297 297 292 288 285 283 275
338 333 333 335 333 330 329 327 324 321 319 318 320 323 323 322 321 319 316 312 311 310 309 307 307 305 303 301 301 301 301 298 295 297 297 296 294 294 293 289 285 283 277
333 328 330 332 330 328 328 326 324 322 321 320 322 325 327 326 326 326 320 315 313 313 311 308 305 303 303 302 300 298 297 296 296 297 296 294 294 294 291 289 287 283 278
336 334 332 329 327 326 325 324 323 322 320 320 321 321 322 323 323 322 320 316 313 312 312 311 308 306 303 303 300 297 294 294 295 296 295 293 293 293 292 290 287 284 278
334 331 329 327 328 327 326 325 322 319 317 316 316 316 316 317 318 317 316 313 311 310 311 310 307 306 304 304 301 299 299 295 295 294 295 294 293 293 292 290 286 284 280
328 325 324 324 324 323 322 320 320 317 315 313 314 315 313 313 314 314 313 313 311 310 310 308 307 305 303 302 299 297 298 297 295 294 293 293 294 294 290 287 284 281 280
319 320 319 320 318 316 315 315 314 314 313 313 313 312 311 311 311 311 310 309 308 306 306 306 306 304 300 298 298 297 296 296 295 296 293 292 292 292 289 286 281 278 279
313 313 314 314 315 314 313 312 311 311 311 312 311 310 309 308 308 308 308 307 305 304 303 303 302 301 298 298 297 296 296 294 293 291 292 293 292 290 286 286 283 279 277
308 308 309 309 309 309 309 309 308 308 309 309 309 308 307 306 305 306 306 306 305 302 301 302 300 303 300 296 297 294 294 292 291 291 290 289 289 289 286 284 282 279 277
305 306 306 305 306 307 309 308 307 306 306 306 307 305 303 302 301 302 303 303 302 301 301 302 301 300 299 299 297 296 293 291 291 291 290 287 285 284 283 282 280 277 275
304 305 305 305 306 305 306 307 306 306 305 304 303 302 301 300 298 297 298 298 299 298 298 298 298 299 299 299 298 298 297 294 291 290 289 288 286 283 280 279 278 276 275
303 302 302 302 303 303 304 303 303 303 304 304 302 300 300 301 300 297 297 297 298 298 297 296 297 298 299 298 297 297 296 295 292 290 288 287 286 284 281 279 276 275 274
302 302 301 300 301 301 301 301 301 301 303 302 301 301 301 302 303 302 300 298 297 297 297 296 297 297 297 296 296 295 294 294 294 292 288 286 285 284 281 279 277 275 274
299 300 299 299 299 299 300 299 300 300 300 300 300 299 300 301 301 300 300 299 298 297 297 296 296 296 297 296 296 296 295 294 294 293 291 287 285 282 279 278 275 274 274
297 298 299 299 298 298 299 299 300 299 299 299 299 299 300 300 300 299 298 297 297 297 297 296 295 295 295 296 296 297 296 296 294 292 292 289 287 283 279 277 275 274 273
298 298 299 300 300 300 300 299 299 300 300 300 300 300 299 299 299 298 297 296 297 297 297 296 295 294 295 296 296 296 296 295 293 292 291 290 289 285 281 278 276 273 272
297 298 299 299 299 300 300 300 300 300 299 300 300 299 299 299 299 298 296 295 296 297 297 297 295 295 295 296 296 296 295 294 293 293 292 291 289 287 282 279 277 275 272
297 297 298 297 297 298 298 299 300 299 299 299 299 298 298 299 299 298 296 296 296 296 296 297 297 296 295 295 296 296 294 293 293 290 290 289 288 285 282 280 278 277 276
296 296 295 296 296 297 297 297 298 298 298 297 297 297 297 297 297 296 296 296 296 296 296 296 295 295 294 294 294 295 294 293 292 290 288 287 286 285 282 280 277 276 276